Location: ?????oe
(44.4874°N, 135.7046°E)
Time: 21:16:09
(UTC+00:00)

Cosmos 2221 - Pass Details

Date: 13 December 2025
Orbit: 569 x 590 km, 82.5° (Epoch: 21 January)

Event Time Altitude Azimuth Distance (km) Brightness Sun altitude
Exits shadow 20:10:43 - 6° (N) 2,361 5.5 -23.1°
Reaches altitude 10° 20:12:02 10° 14° (NNE) 1,881 5.1 -22.9°
Maximum altitude 20:15:38 28° 74° (ENE) 1,088 4.4 -22.3°
Drops below altitude 10° 20:19:12 10° 134° (SE) 1,868 5.8 -21.6°
Sets 20:21:37 0° 146° (SE) 2,762 6.6 -21.2°
